RH
13 13 5 6 5 5 5 5 5 5 5 6 6 7 7 6 6 5 5 4 4 4 5 6 7 7 8 9 10 12 14 14 15 14 12 10 12 10 9 9 9 9 10
22 21 14 10 6 5 4 4 5 5 5 6 6 6 7 7 6 6 6 5 4 4 5 6 7 8 9 9 11 13 13 13 13 14 13 13 12 10 10 10 11 10 10
19 22 21 17 13 10 5 5 5 6 6 6 6 7 8 8 7 7 6 6 5 5 6 7 8 9 10 12 13 14 14 14 15 14 13 12 12 12 13 13 13 13 12
15 14 16 20 21 16 13 7 5 5 6 7 8 7 7 7 7 7 6 6 6 6 7 8 9 10 10 11 11 12 11 10 9 9 9 9 9 10 11 12 14 14 13
13 13 13 13 16 19 19 17 14 8 5 6 7 8 9 8 7 7 7 6 6 7 8 10 11 12 13 13 12 12 13 17 20 22 21 20 21 21 23 23 24 26 30
12 12 12 11 11 12 16 20 20 16 11 9 7 6 6 6 7 7 8 8 8 8 9 11 12 12 14 16 17 20 20 20 24 23 27 27 28 30 30 32 32 31 31
14 14 14 13 12 11 13 16 20 24 25 20 15 11 7 6 6 6 7 8 10 11 12 13 14 15 16 17 18 19 23 28 31 31 31 28 25 26 31 32 34 34 32
15 14 15 16 15 14 12 13 14 14 14 15 17 17 14 8 8 7 8 8 11 15 18 20 23 24 23 25 26 27 32 35 34 34 32 30 24 20 18 21 28 36 38
16 17 18 19 18 17 16 14 16 16 16 17 16 17 16 13 11 11 10 14 16 22 24 26 27 30 32 33 34 34 37 38 37 37 36 34 30 21 17 19 29 36 39
16 20 21 21 21 20 18 17 16 16 15 18 20 20 17 15 16 16 16 18 24 28 33 34 33 33 34 34 37 39 42 42 40 40 39 38 37 32 32 29 26 27 34
16 21 24 24 23 22 21 20 18 18 17 16 18 20 21 20 20 21 21 21 22 25 31 36 42 39 36 37 37 41 45 46 46 45 44 43 39 38 37 39 41 40 39
10 15 18 22 24 24 25 24 24 23 22 18 17 19 22 23 26 27 28 27 27 27 29 34 41 46 45 40 39 40 45 48 48 49 47 49 49 42 44 38 43 45 42
7 8 13 18 24 27 30 30 30 28 26 25 22 19 20 22 28 41 53 37 32 33 33 32 30 32 39 42 49 48 46 47 49 51 51 52 56 52 48 51 44 40 43
8 9 9 11 15 19 24 28 29 29 29 30 29 28 24 23 24 32 34 43 40 35 36 35 33 32 31 31 33 37 50 55 55 57 59 58 60 60 53 52 51 49 48
11 11 12 12 13 14 14 14 18 24 30 33 35 34 33 28 26 28 30 40 67 47 35 35 33 31 30 30 29 29 33 37 41 50 58 63 61 67 58 54 52 50 42
9 9 10 10 11 12 13 13 13 11 22 28 33 38 39 39 35 33 36 33 38 36 33 35 36 33 30 29 28 27 32 55 62 70 73 75 71 70 63 51 49 39 37
8 7 14 9 8 8 8 8 9 10 15 16 14 31 43 43 43 42 42 34 36 35 40 39 35 34 33 31 28 28 34 55 64 74 76 71 64 59 51 52 54 49 52
7 6 6 17 9 9 8 5 6 10 11 12 11 23 50 54 54 46 43 48 44 43 49 45 39 37 33 32 34 31 32 49 54 75 80 68 58 55 53 53 53 56 57
7 7 7 7 23 12 11 10 6 12 18 22 27 18 33 53 53 52 51 47 48 50 50 51 52 54 53 43 33 30 31 43 49 64 82 81 67 59 65 69 68 65 64
7 7 8 7 12 26 28 35 36 32 35 32 35 40 49 37 44 51 53 56 54 55 55 54 58 56 54 49 48 37 28 33 41 48 68 84 85 84 84 83 79 74 69
9 9 8 8 7 12 32 39 39 35 41 42 33 31 28 33 39 37 38 44 40 42 49 46 51 59 62 57 52 46 37 29 29 39 46 58 71 77 79 80 80 74 67
10 11 11 10 9 8 12 21 22 16 29 37 35 45 41 43 53 43 35 29 24 21 28 34 46 62 63 62 50 45 51 43 37 39 37 35 39 43 46 46 45 43 42
12 12 12 12 11 9 9 16 32 46 41 48 56 54 51 67 58 52 43 28 25 35 32 28 39 61 64 63 60 55 46 50 57 59 56 52 48 45 41 34 25 18 16
13 14 14 15 13 11 10 10 17 22 35 45 35 35 48 54 64 58 62 45 36 30 22 24 32 44 63 63 65 63 59 48 46 45 43 41 38 37 37 37 38 38 37
11 12 13 13 13 13 12 12 13 15 17 20 28 31 36 47 66 70 62 54 41 38 30 28 49 48 47 50 60 63 61 56 54 52 50 46 45 45 49 47 45 43 41
10 10 11 12 13 14 14 12 11 10 15 16 19 20 28 40 44 55 62 57 46 45 37 34 48 47 35 40 56 60 58 56 55 54 54 56 61 68 63 57 52 49 45
Wind_Speed
18 16 18 19 19 19 20 19 19 19 19 20 19 18 19 17 17 16 16 16 17 18 18 17 16 16 17 18 17 16 15 14 15 16 15 16 17 17 18 18 19 20 21
18 18 19 17 17 18 18 19 19 18 19 20 20 20 20 19 18 18 19 18 17 18 19 18 17 16 16 17 17 17 16 16 16 16 17 17 17 18 17 18 19 20 20
19 17 18 18 18 19 19 19 20 20 20 20 22 22 22 22 22 22 22 21 20 19 19 19 18 17 18 17 16 17 18 17 17 16 18 18 19 20 20 21 21 23 23
17 17 16 18 20 21 20 19 20 21 22 22 21 23 24 25 24 24 24 23 22 20 20 19 19 19 19 19 18 19 18 18 17 17 20 20 21 22 23 23 23 24 24
19 18 17 18 19 21 22 22 21 21 23 23 24 24 24 24 24 24 25 24 23 22 21 21 22 21 20 19 18 18 17 16 17 17 20 22 24 24 25 26 27 27 26
19 19 19 20 20 20 22 23 22 22 22 22 23 24 24 24 24 24 24 25 25 24 23 22 22 22 21 21 20 20 19 19 17 18 18 21 22 25 25 25 25 25 24
22 22 22 22 21 21 22 21 22 24 23 24 24 24 24 25 25 26 26 26 25 25 25 23 22 21 21 21 21 20 18 16 16 18 22 24 26 28 30 30 29 27 27
25 25 24 23 23 23 23 22 21 21 21 21 22 24 26 25 24 24 24 25 25 24 24 23 21 21 22 21 20 20 18 17 19 22 24 25 27 27 29 30 30 29 27
27 25 26 25 24 24 23 22 21 21 19 18 20 21 22 23 23 22 21 22 22 22 22 22 22 21 22 21 21 21 20 21 23 24 26 25 26 25 24 23 25 27 27
27 27 27 26 24 24 24 23 23 23 21 19 18 20 20 20 20 21 20 19 19 21 21 23 23 22 22 23 23 24 23 24 25 26 28 27 25 26 24 20 18 20 23
29 28 28 27 27 27 26 25 25 25 24 23 20 19 21 21 20 19 19 19 20 20 21 23 24 25 24 26 28 28 29 29 30 30 31 29 26 27 28 27 23 21 20
31 32 33 32 30 29 28 28 27 26 26 26 25 23 22 22 22 21 20 20 19 19 20 22 24 26 28 30 31 32 33 33 33 33 33 33 29 29 28 29 28 26 26
29 30 32 32 32 31 30 30 30 30 28 27 27 27 26 26 24 22 22 23 23 23 24 24 24 26 28 31 33 34 35 36 35 35 35 35 35 31 31 29 31 32 30
25 27 29 30 30 32 34 33 33 32 31 29 28 27 29 29 28 27 25 26 25 25 26 27 27 27 26 28 31 33 37 38 39 37 38 38 37 36 33 33 32 32 33
25 26 26 27 28 29 30 31 33 34 33 32 31 29 30 30 31 30 29 29 26 29 28 30 29 29 28 29 29 30 31 32 34 35 35 37 38 37 36 35 35 35 34
31 30 30 28 29 29 30 31 32 32 34 34 34 32 31 30 30 29 30 31 30 30 30 30 28 28 29 30 31 31 31 31 32 32 33 33 34 37 37 35 35 35 33
34 33 31 30 31 30 30 30 30 30 32 32 33 34 33 31 29 30 31 30 29 28 29 29 29 29 29 30 32 33 32 31 32 32 31 31 30 31 33 33 34 33 32
37 32 31 32 31 31 33 31 28 31 31 28 27 31 31 30 31 32 30 28 30 29 30 30 29 29 31 32 33 34 34 32 32 33 32 31 30 31 32 33 34 35 36
39 37 35 34 32 31 33 35 32 30 30 26 23 25 28 32 34 31 29 29 30 30 31 31 31 32 33 34 36 36 36 35 34 34 34 34 32 32 35 38 39 39 40
39 37 36 35 33 34 35 36 35 33 29 28 27 25 27 30 32 32 32 31 33 32 34 35 35 36 37 37 37 38 37 37 36 35 36 37 38 38 39 42 43 44 45
38 39 38 38 37 36 36 36 36 36 36 33 32 31 29 31 31 29 32 34 36 37 37 38 38 37 38 37 38 37 36 37 38 38 37 38 40 42 44 46 47 49 50
43 42 43 42 40 38 38 39 39 41 42 38 35 33 32 34 34 34 31 31 31 32 32 35 35 36 36 36 36 36 36 37 38 40 40 40 41 42 44 46 48 49 51
46 45 45 45 46 43 41 38 40 42 44 43 39 35 35 38 38 36 32 33 32 32 32 33 34 35 35 36 36 36 38 39 40 41 41 42 44 46 47 48 48 49 49
47 46 46 45 45 45 44 43 39 41 42 44 45 44 45 43 40 38 34 34 34 35 35 33 34 35 35 37 37 38 39 39 40 40 42 44 45 46 47 48 49 49 50
47 47 46 47 48 48 49 48 46 42 43 43 46 49 49 48 47 42 42 37 38 38 38 35 34 35 37 39 40 39 40 40 41 42 43 44 45 47 48 50 51 52 53
50 52 52 52 51 52 52 53 52 51 44 44 42 47 51 52 51 47 47 43 42 41 41 38 36 37 38 38 39 40 41 41 42 43 43 44 45 47 50 52 53 54 54
Wind_Direction
261 271 260 264 265 266 265 266 266 267 263 262 264 269 274 277 279 281 284 285 282 280 277 275 270 271 273 276 278 278 281 281 278 278 280 280 282 281 280 281 281 281 281
262 264 260 267 272 271 264 261 263 262 261 260 262 263 265 270 275 278 281 281 280 277 275 272 270 269 272 277 280 281 278 274 276 283 283 285 287 286 283 283 284 284 282
267 270 265 265 269 270 268 266 264 265 263 262 262 262 263 266 270 273 276 276 274 271 268 268 268 269 272 273 273 271 274 277 278 280 282 285 285 286 286 285 286 284 283
269 269 273 267 266 269 272 271 271 271 271 268 267 266 265 265 268 270 271 271 270 268 265 263 263 264 266 271 272 272 272 275 278 282 283 283 284 284 284 284 284 284 285
260 265 266 267 266 268 271 274 274 270 270 271 271 271 270 269 269 270 270 268 267 265 262 261 261 263 266 267 269 271 274 277 279 280 282 284 284 285 284 285 284 284 282
257 261 262 263 267 269 269 269 273 275 274 273 273 274 274 273 271 272 275 274 271 266 259 258 260 261 265 266 269 271 275 278 279 279 284 285 287 286 285 282 281 283 287
256 260 262 264 268 269 272 273 275 277 277 278 277 277 275 275 275 276 275 275 274 270 267 263 262 263 264 267 269 271 273 273 275 286 291 293 293 287 282 280 280 280 281
253 257 263 268 271 273 276 278 279 280 283 284 281 279 277 277 278 276 277 277 276 275 273 270 269 269 267 267 268 267 267 268 277 290 296 303 302 295 288 280 277 273 274
253 255 258 260 264 269 273 275 279 280 283 286 282 278 277 274 276 273 271 273 274 274 274 271 268 267 267 264 258 260 261 268 278 285 292 301 304 299 295 289 280 277 277
251 252 253 258 262 266 269 271 272 276 278 285 285 281 278 273 275 276 275 271 269 272 270 271 269 266 264 259 255 257 263 269 274 281 288 294 300 295 294 297 297 288 280
246 250 255 257 259 259 263 266 269 272 273 277 280 283 282 280 279 279 282 280 278 275 272 270 269 266 262 259 257 260 265 270 275 279 282 287 290 291 286 288 288 287 284
246 246 248 251 256 260 260 263 265 268 272 274 276 281 283 280 278 277 278 279 281 282 281 278 273 269 264 263 264 264 265 270 274 276 279 280 283 285 286 280 279 279 279
250 252 252 252 253 257 260 262 264 265 268 272 273 276 282 285 283 277 277 277 278 283 284 283 283 279 275 271 268 269 271 273 275 276 277 279 280 282 283 283 278 275 277
251 250 254 256 255 255 257 259 262 266 267 268 268 273 276 279 282 277 273 273 274 277 284 286 286 285 283 282 277 274 272 274 275 276 275 275 277 279 281 281 280 278 276
246 250 250 253 256 259 260 262 263 265 266 266 267 270 273 274 277 280 281 279 273 285 284 286 285 286 286 283 282 281 280 280 280 280 279 276 276 276 279 281 279 278 276
250 250 250 252 254 256 259 262 265 269 269 268 267 267 269 271 273 276 278 279 281 282 284 283 287 287 286 283 281 282 284 284 281 280 280 282 280 278 281 281 282 279 275
245 250 252 252 256 258 257 259 263 265 267 268 269 266 267 270 272 273 277 279 282 281 284 287 288 285 285 283 283 282 283 285 283 279 279 281 283 282 282 281 281 280 277
254 252 249 249 250 254 262 263 258 260 262 267 268 263 265 271 269 269 272 279 280 282 285 288 290 291 289 287 286 284 284 285 285 280 278 280 281 281 281 280 280 279 277
250 253 252 250 248 247 250 259 259 256 258 262 266 266 258 260 265 269 275 277 276 278 282 286 289 291 294 294 291 289 285 285 289 285 278 277 280 281 280 280 280 279 279
244 246 246 248 246 247 247 252 258 258 256 259 260 261 258 262 264 266 268 270 273 277 281 283 286 287 289 290 292 291 288 284 287 290 284 280 280 283 283 284 283 284 284
238 245 247 247 248 246 246 251 255 258 256 254 258 259 262 266 266 266 268 269 272 275 278 280 282 285 288 288 289 290 291 288 288 289 290 287 285 284 284 285 285 285 286
244 242 244 247 248 246 246 246 250 253 259 258 256 261 264 265 265 267 268 271 274 277 280 282 284 285 287 288 291 290 291 290 288 287 288 289 288 287 287 287 287 287 286
247 247 248 246 245 245 246 246 248 251 253 260 262 261 263 260 262 267 269 271 274 276 279 282 283 283 286 287 289 292 290 289 289 290 290 289 288 287 288 288 288 287 285
254 251 249 249 247 245 246 248 250 253 257 257 258 256 258 262 265 269 270 271 272 274 278 279 281 281 283 286 289 292 292 292 292 292 291 290 290 291 291 290 289 287 285
256 257 254 251 248 246 247 248 252 254 257 261 257 260 260 261 264 266 270 272 271 273 275 275 279 282 284 285 286 290 291 291 291 290 291 292 294 294 293 292 291 290 289
257 256 256 255 251 250 247 247 250 254 254 258 257 258 260 260 261 263 265 270 272 271 273 276 276 281 286 285 285 287 289 290 291 293 295 296 296 297 297 296 295 293 291